Zurück zum Katalog

STARLINK-32528

AktivKommunikationVLEO
NORAD 61724·PAYLOAD·🇺🇸 United States

Gestartet Oct 30, 2024 von Cape Canaveral Space Force Station

Loading…

Nächste Überflüge (nächste 24 Stunden)

TLE

AktuellSource: CelesTrak SupGP

Epoche: Sep 15, 2026, 02:50 UTC

1 61724C 24196T   26258.11854167  .00023534  00000+0  69517-3 0  2583
2 61724  53.1579 298.6325 0001275  91.0976 100.1886 15.34385443    19

Verfolge STARLINK-32528 in Echtzeit mit AllMySat

Download on the App Store